Regional Weather Roundup
Issued by NWS Jackson, KY

Home | Current Version | Previous Version | Text Only | Print | Product List | Glossary Off
Versions: 1 2 3 4 5 6 7 8 9 10 11 12 13 14 15 16 17 18 19 20 21 22 23 24 25 26 27 28

000
ASUS43 KJKL 010110
RWRJKL

EAST KENTUCKY HOURLY WEATHER ROUNDUP
NATIONAL WEATHER SERVICE JACKSON KY
900 PM EDT WED AUG 31 2016

NOTE: "FAIR" INDICATES FEW OR NO CLOUDS BELOW 12,000 FEET WITH
NO SIGNIFICANT WEATHER AND/OR OBSTRUCTIONS TO VISIBILITY.

* THESE REPORTS ARE NOT UNDER NWS QUALITY CONTROL AND MAY NOT
  REPORT WEATHER SUCH AS PRECIPITATION AND FOG.

KYZ079-080-083-085-087-088-110-112-115-119-120-010200
...EASTERN KENTUCKY...

CITY           SKY/WX    TMP DP  RH WIND       PRES   REMARKS
JACKSON        PTCLDY    77  70  79 NW3       29.97R
LONDON         PTCLDY    78  68  71 N3        29.97R
SOMERSET*      CLOUDY    77  68  73 CALM      29.97S
MONTICELLO*    CLEAR    N/A N/A N/A NW8       29.99R
WILLIAMSBURG*  PTCLDY    75  73  94 CALM      29.97R
MIDDLESBORO*   PTCLDY    77  71  83 W3        29.97R
HARLAN APT*    CLEAR     73  68  83 CALM      29.98R
PIKE CO APT*     N/A     79  67  65 N5        29.97R
BIG SANDY APT* CLOUDY    80  67  66 CALM      29.97R
MOREHEAD APT*  CLOUDY    73  68  83 N6        29.98S
ASHLAND*       CLOUDY    72  68  88 NE6       29.95R
$$

KYZ035-036-041-042-044-050-067-078-099-010200
...CENTRAL KENTUCKY...

CITY           SKY/WX    TMP DP  RH WIND       PRES   REMARKS
MT STERLING*   MOCLDY    77  72  83 NE7       30.00R
FLEMING/MASON* CLOUDY    72  71  97 CALM      29.98R
DANVILLE*      PTCLDY    73  70  88 CALM      29.98R
LEXINGTON      CLOUDY    75  68  78 N10       29.98R
FRANKFORT      CLOUDY    75  72  90 NE5       29.96S
LOUISVILLE     MOCLDY    78  71  79 N5        29.95R
LEBANON*         N/A     75  72  88 NW6       29.97R
GLASGOW*       MOCLDY    76  71  85 CALM      29.96R
BOWLING GREEN  PTCLDY    81  72  74 CALM      29.95R
$$

KYZ091>093-OHZ055-061-077-WVZ005-015-034-035-042-010200
...SOUTHERN OHIO/WEST VIRGINIA...

CITY           SKY/WX    TMP DP  RH WIND       PRES   REMARKS
COVINGTON      CLOUDY    74  71  91 CALM      29.96S
COLUMBUS       MOCLDY    73  71  93 E3        29.94R
DAYTON         MOCLDY    74  69  85 NW6       29.98R
WILMINGTON     CLOUDY    74  72  93 NW5       29.96S
HUNTINGTON     LGT RAIN  73  71  93 N7        29.96R
CHARLESTON     PTCLDY    77  66  68 CALM      29.93R
PINEVILLE*     CLEAR     71  66  84 MISG      30.03R
BECKLEY        CLEAR     72  67  84 CALM      30.02R
BLUEFIELD      CLOUDY    73  64  73 W5        30.05R
LOGAN CO APT*    N/A     77  70  78 CALM      29.97R
$$

VAZ002-007-008-TNZ017-027-036-066-071-010200
...SOUTHWEST VIRGINIA/EAST TENNESSEE...

CITY           SKY/WX    TMP DP  RH WIND       PRES   REMARKS
WISE*          CLEAR     72  59  64 CALM      30.05S
JONESVILLE*      N/A     75  68  78 CALM      29.99R
ABINGDON*      PTCLDY    75  68  79 E5        30.02R
BRISTOL        CLOUDY    78  68  71 CALM      29.97R
MORRISTOWN*    PTCLDY    81  68  65 N5        29.94R
SEVIERVILLE*   PTCLDY    79  66  65 CALM      29.92R
KNOXVILLE      CLOUDY    83  69  62 NW7       29.91R
OAK RIDGE      PTCLDY    82  67  60 CALM      29.94R
CROSSVILLE     PTCLDY    71  70  96 W3        30.01R
NASHVILLE      PTCLDY    83  71  67 N6        29.94R
$$

...KEY TO REMARKS...
VSB - VISIBILITY IN MILES
WCI - WIND CHILL INDEX
HX  - HEAT INDEX

$$




USA.gov is the U.S. government's official web portal to all federal, state and local government web resources and services.